This is the latest recevied weather packets stored in our database for station/object IV3CGM-13. If no packets are shown the sender has not sent any weather packets the latest 10 day(s).
| Time | Temp. | Humidity | Pressure | Rain* | Wind** | Luminosity | Snow |
|---|---|---|---|---|---|---|---|
| 1788543164 | 23.33° C | 76% | 1017.6 hPa | 0 mm | - | 9 W/m² | - |
| 1788542463 | 23.89° C | 74% | 1017.5 hPa | 0 mm | - | 19 W/m² | - |
| 1788541775 | 23.89° C | 74% | 1017.5 hPa | 0 mm | - | 31 W/m² | - |
| 1788541088 | 23.89° C | 72% | 1017.5 hPa | 0 mm | - | 45 W/m² | - |
| 1788540400 | 24.44° C | 72% | 1017.5 hPa | 0 mm | - | 56 W/m² | - |
| 1788539663 | 24.44° C | 74% | 1017.5 hPa | 0 mm | - | 65 W/m² | - |
| 1788538963 | 25° C | 73% | 1017.5 hPa | 0 mm | - | 74 W/m² | - |
| 1788538276 | 25° C | 72% | 1017.5 hPa | 0 mm | - | 79 W/m² | - |
| 1788537588 | 25.56° C | 70% | 1017.6 hPa | 0 mm | - | 96 W/m² | - |
| 1788536900 | 26.11° C | 65% | 1017.7 hPa | 0 mm | - | 157 W/m² | - |
| 1788536164 | 26.67° C | 67% | 1017.8 hPa | 0 mm | - | 193 W/m² | - |
| 1788535463 | 27.22° C | 64% | 1017.8 hPa | 0 mm | - | 226 W/m² | - |
| 1788534775 | 27.78° C | 57% | 1017.9 hPa | 0 mm | - | 256 W/m² | - |
| 1788534087 | 28.33° C | 56% | 1017.9 hPa | 0 mm | - | 286 W/m² | - |
| 1788533400 | 29.44° C | 55% | 1018.1 hPa | 0 mm | - | 295 W/m² | - |
| 1788532663 | 28.89° C | 49% | 1018.3 hPa | 0 mm | - | 356 W/m² | - |
| 1788531962 | 29.44° C | 47% | 1018.4 hPa | 0 mm | - | 409 W/m² | - |
| 1788531275 | 28.89° C | 49% | 1018.5 hPa | 0 mm | - | 446 W/m² | - |
| 1788530587 | 28.89° C | 49% | 1018.6 hPa | 0 mm | - | 480 W/m² | - |
| 1788529899 | 28.33° C | 51% | 1018.7 hPa | 0 mm | - | 498 W/m² | - |
| 1788529212 | 29.44° C | 48% | 1018.7 hPa | 0 mm | - | 539 W/m² | - |
| 1788528525 | 28.33° C | 50% | 1018.8 hPa | 0 mm | - | 557 W/m² | - |
| 1788527850 | 28.33° C | 52% | 1018.8 hPa | 0 mm | - | 599 W/m² | - |
| 1788527148 | 28.89° C | 50% | 1018.9 hPa | 0 mm | - | 637 W/m² | - |
| 1788526461 | 29.44° C | 49% | 1018.9 hPa | 0 mm | - | 668 W/m² | - |
* Rain latest hour (hover to see other rain measurements)
** Current wind speed in m/s (hover to see current wind gust speed)